Weather History for Macomb, IL

Change the Weather History Date:

Thursday, November 15, 2012

  Actual Average (KBRL) Record (KBRL)
Temperature  
Mean Temperature 44 °F 43 °F  
Max Temperature 55 °F 52 °F 74 °F (1950)
Min Temperature 32 °F 34 °F 4 °F (1940)
Degree Days  
Heating Degree Days 22 22  
Month to date heating degree days 283  
Since 1 July heating degree days 677  
Cooling Degree Days 0 0  
Month to date cooling degree days 0  
Year to date cooling degree days 1206  
Moisture  
Dew Point 30 °F    
Average Humidity 67    
Maximum Humidity 90    
Minimum Humidity 32    
Precipitation  
Precipitation 0.00 in 0.09 in 0.80 in (1961)
Month to date precipitation 1.29  
Year to date precipitation 35.18  
Sea Level Pressure  
Sea Level Pressure 30.36 in    
Wind  
Wind Speed 5 mph (South)    
Max Wind Speed 8 mph    
Max Gust Speed -    
Visibility 10 miles    
Events      
T = Trace of Precipitation, MM = Missing Value Source: NWS Daily Summary

Daily Weather History Graph

Daily Weather History Graph

Search for Another Location

Airport:

Trip Planner

Search our weather history database for the weather conditions in past years. The results will help you decide how hot, cold, wet, or windy it might be!

Date:

Astronomy

Nov. 15, 2012 Rise Set
Actual Time 6:49 AM CST 4:44 PM CST
Civil Twilight 6:20 AM CST 5:13 PM CST
Nautical Twilight 5:47 AM CST 5:46 PM CST
Astronomical Twilight 5:14 AM CST 6:19 PM CST
Moon 8:45 AM CST (11/15) 6:36 PM CST (11/15)
Length of Visible Light 10h 53m
Length of Day
9h 55m
Waxing Crescent, 5% of the Moon is Illuminated
Nov 15
Waxing Crescent
Nov 20
First Quarter
Nov 28
Full
Dec 6
Last Quarter
Dec 13
New

Hourly Weather History & Observations

Time (CST) Temp. Windchill Dew Point Humidity Pressure Visibility Wind Dir Wind Speed Gust Speed Precip Events Conditions
12:15 AM 34.3 °F 27.7 °F 30.2 °F 85% 30.36 in 10.0 mi SSE 8.1 mph - N/A   Clear
12:35 AM 34.3 °F 28.4 °F 30.2 °F 85% 30.36 in 10.0 mi SSE 6.9 mph - N/A   Clear
12:55 AM 33.8 °F 27.7 °F 30.2 °F 87% 30.36 in 10.0 mi SSE 6.9 mph - N/A   Clear
1:15 AM 33.8 °F 29.6 °F 29.8 °F 85% 30.36 in 10.0 mi SSE 4.6 mph - N/A   Clear
1:35 AM 33.3 °F 28.9 °F 29.8 °F 87% 30.36 in 10.0 mi South 4.6 mph - N/A   Clear
1:55 AM 33.1 °F 28.7 °F 29.5 °F 87% 30.36 in 10.0 mi South 4.6 mph - N/A   Clear
2:15 AM 33.4 °F 30.4 °F 29.3 °F 85% 30.36 in 10.0 mi SSE 3.5 mph - N/A   Clear
2:35 AM 32.5 °F 28.1 °F 29.3 °F 88% 30.36 in 10.0 mi SSE 4.6 mph - N/A   Clear
2:55 AM 32.9 °F 29.8 °F 29.3 °F 87% 30.36 in 10.0 mi SSE 3.5 mph - N/A   Clear
3:15 AM 32.9 °F 29.8 °F 29.5 °F 87% 30.36 in 10.0 mi South 3.5 mph - N/A   Clear
3:35 AM 32.4 °F 27.9 °F 29.3 °F 88% 30.35 in 10.0 mi SSE 4.6 mph - N/A   Clear
3:55 AM 32.0 °F 28.7 °F 29.1 °F 89% 30.35 in 10.0 mi SE 3.5 mph - N/A   Clear
4:15 AM 32.0 °F - 29.3 °F 90% 30.35 in 10.0 mi Calm Calm - N/A   Clear
4:35 AM 32.0 °F - 28.9 °F 88% 30.35 in 10.0 mi Calm Calm - N/A   Clear
4:55 AM 32.0 °F - 29.3 °F 90% 30.35 in 10.0 mi Calm Calm - N/A   Clear
5:15 AM 32.4 °F 29.1 °F 29.1 °F 88% 30.35 in 10.0 mi SE 3.5 mph - N/A   Clear
5:35 AM 32.0 °F - 29.3 °F 90% 30.36 in 10.0 mi Calm Calm - N/A   Clear
5:55 AM 32.0 °F 27.5 °F 29.3 °F 90% 30.35 in 10.0 mi SSE 4.6 mph - N/A   Clear
6:15 AM 32.4 °F 27.9 °F 29.8 °F 90% 30.36 in 10.0 mi SSE 4.6 mph - N/A   Clear
6:35 AM 32.9 °F 29.8 °F 29.8 °F 88% 30.36 in 10.0 mi SSE 3.5 mph - N/A   Scattered Clouds
6:55 AM 32.9 °F 28.5 °F 29.7 °F 88% 30.36 in 10.0 mi South 4.6 mph - N/A   Scattered Clouds
7:15 AM 32.9 °F 29.8 °F 29.8 °F 88% 30.37 in 7.0 mi South 3.5 mph - N/A   Clear
7:35 AM 33.4 °F 30.4 °F 30.2 °F 88% 30.37 in 7.0 mi South 3.5 mph - N/A   Clear
7:55 AM 34.7 °F 30.6 °F 30.7 °F 85% 30.38 in 10.0 mi South 4.6 mph - N/A   Clear
8:15 AM 36.0 °F 32.1 °F 30.4 °F 80% 30.38 in 10.0 mi South 4.6 mph - N/A   Clear
8:35 AM 36.7 °F 34.1 °F 30.9 °F 80% 30.38 in 10.0 mi South 3.5 mph - N/A   Clear
8:55 AM 37.6 °F 35.1 °F 31.3 °F 78% 30.38 in 10.0 mi South 3.5 mph - N/A   Clear
9:15 AM 38.7 °F 36.3 °F 31.6 °F 76% 30.38 in 10.0 mi South 3.5 mph - N/A   Clear
9:35 AM 41.0 °F 39.0 °F 31.8 °F 70% 30.38 in 10.0 mi South 3.5 mph - N/A   Clear
9:55 AM 42.8 °F 40.1 °F 32.0 °F 66% 30.38 in 10.0 mi South 4.6 mph - N/A   Clear
10:15 AM 44.8 °F 41.0 °F 33.6 °F 65% 30.38 in 10.0 mi SSE 6.9 mph - N/A   Clear
10:35 AM 45.9 °F 43.6 °F 32.5 °F 60% 30.38 in 10.0 mi SSE 4.6 mph - N/A   Clear
10:55 AM 47.3 °F - 32.2 °F 56% 30.38 in 10.0 mi SSE 4.6 mph - N/A   Clear
11:15 AM 49.1 °F - 31.8 °F 51% 30.38 in 10.0 mi South 4.6 mph - N/A   Clear
11:35 AM 50.2 °F - 32.2 °F 50% 30.37 in 10.0 mi South 6.9 mph - N/A   Clear
11:55 AM 51.8 °F - 30.2 °F 44% 30.36 in 10.0 mi South 5.8 mph - N/A   Clear
12:15 PM 52.3 °F - 30.6 °F 43% 30.35 in 10.0 mi South 5.8 mph - N/A   Clear
12:35 PM 53.4 °F - 30.2 °F 41% 30.35 in 10.0 mi SSW 3.5 mph - N/A   Clear
12:55 PM 53.8 °F - 28.4 °F 38% 30.34 in 10.0 mi Calm Calm - N/A   Clear
1:15 PM 54.5 °F - 29.7 °F 39% 30.33 in 10.0 mi SSE 5.8 mph - N/A   Clear
1:35 PM 54.3 °F - 26.6 °F 34% 30.33 in 10.0 mi South 3.5 mph - N/A   Clear
1:55 PM 54.9 °F - 28.4 °F 36% 30.33 in 10.0 mi South 4.6 mph - N/A   Clear
2:15 PM 54.9 °F - 27.5 °F 35% 30.32 in 10.0 mi South 6.9 mph - N/A   Clear
2:35 PM 55.4 °F - 25.9 °F 32% 30.32 in 10.0 mi South 4.6 mph - N/A   Clear
2:55 PM 55.4 °F - 26.6 °F 33% 30.32 in 10.0 mi SW 5.8 mph - N/A   Scattered Clouds
3:15 PM 55.6 °F - 26.4 °F 33% 30.32 in 10.0 mi South 6.9 mph - N/A   Scattered Clouds
3:35 PM 55.4 °F - 26.1 °F 32% 30.33 in 10.0 mi SW 5.8 mph - N/A   Clear
3:55 PM 55.4 °F - 28.4 °F 36% 30.33 in 10.0 mi SSW 4.6 mph - N/A   Scattered Clouds
4:15 PM 54.5 °F - 29.5 °F 38% 30.33 in 10.0 mi SSW 4.6 mph - N/A   Scattered Clouds
4:35 PM 51.6 °F - 32.0 °F 47% 30.34 in 10.0 mi South 4.6 mph - N/A   Clear
4:55 PM 48.2 °F - 33.1 °F 56% 30.34 in 10.0 mi South 5.8 mph - N/A   Clear
5:15 PM 46.8 °F - 33.3 °F 59% 30.34 in 10.0 mi South 5.8 mph - N/A   Clear
5:35 PM 46.2 °F 43.3 °F 33.3 °F 61% 30.35 in 10.0 mi South 5.8 mph - N/A   Clear
5:55 PM 45.3 °F 41.6 °F 33.3 °F 63% 30.34 in 10.0 mi South 6.9 mph - N/A   Clear
6:15 PM 45.1 °F 42.0 °F 32.9 °F 62% 30.35 in 10.0 mi South 5.8 mph - N/A   Clear
6:35 PM 44.2 °F 41.0 °F 32.2 °F 63% 30.35 in 10.0 mi South 5.8 mph - N/A   Clear
6:55 PM 43.0 °F 39.5 °F 31.6 °F 64% 30.35 in 10.0 mi South 5.8 mph - N/A   Clear
7:15 PM 41.5 °F 37.8 °F 31.1 °F 66% 30.35 in 10.0 mi South 5.8 mph - N/A   Clear
7:35 PM 41.4 °F 36.8 °F 31.3 °F 67% 30.36 in 10.0 mi South 6.9 mph - N/A   Clear
7:55 PM 41.5 °F 38.6 °F 30.2 °F 64% 30.36 in 10.0 mi South 4.6 mph - N/A   Clear
8:15 PM 41.2 °F 38.2 °F 30.2 °F 65% 30.36 in 10.0 mi South 4.6 mph - N/A   Clear
8:35 PM 40.3 °F 37.1 °F 30.2 °F 67% 30.36 in 10.0 mi South 4.6 mph - N/A   Clear
8:55 PM 40.3 °F 38.2 °F 29.8 °F 66% 30.37 in 10.0 mi South 3.5 mph - N/A   Clear
9:15 PM 39.2 °F - 29.7 °F 69% 30.37 in 10.0 mi Calm Calm - N/A   Clear
9:35 PM 38.8 °F 35.4 °F 29.7 °F 70% 30.37 in 10.0 mi South 4.6 mph - N/A   Clear
9:55 PM 39.2 °F 37.0 °F 29.3 °F 68% 30.37 in 10.0 mi SSE 3.5 mph - N/A   Clear
10:15 PM 38.7 °F 36.3 °F 29.5 °F 70% 30.38 in 10.0 mi South 3.5 mph - N/A   Clear
10:35 PM 39.2 °F 37.0 °F 29.3 °F 68% 30.38 in 10.0 mi South 3.5 mph - N/A   Clear
10:55 PM 38.8 °F 35.4 °F 29.5 °F 69% 30.38 in 10.0 mi SSW 4.6 mph - N/A   Clear
11:15 PM 38.5 °F 34.1 °F 29.8 °F 71% 30.38 in 10.0 mi SSW 5.8 mph - N/A   Clear
11:35 PM 38.5 °F 36.1 °F 30.6 °F 73% 30.38 in 10.0 mi SSW 3.5 mph - N/A   Clear
11:55 PM 40.3 °F - 30.4 °F 68% 30.38 in 10.0 mi Calm Calm - N/A   Clear